ST-2

Last updated on Jan. 29, 2020, 4:37 a.m. UTC

1 37606U 11022B   20028.87584713 -.00000212  00000-0  00000-0 0  9999
2 37606   0.0134 248.4407 0001310  91.9603 190.4643  1.00268931 31904
UTC
Height (km)
Latitude
Longitude
Inclination
Orbital Period
UTC large
Height (km)
Speed (km/s)
/
Latitude / Longitude
Inclination (degrees)
Orbital Period (minutes)
Azimuth
Elevation
Range (km)
Doppler Factor
iOS Compass Heading
iOS Angle

Next 30 passes for location: Hong Kong

Rise time Rise Azimuth (degrees) Set time Set Azimuth (degrees) Duration Max altitude (degrees)

No matching passes for this satellites